Chehalis, WA
on Saturday, November 17, 2012

Saturday
Previous Day Next Day
Daily Summary
 ActualAverage (KOLM)Record (KOLM)
Temperature
Mean Temperature °F 43°F  
Max Temperature 50°F 50°F 61°F (1995)
Min Temperature 44°F 36°F 18°F (1961)
Degree Days
Heating Degree Days 18 22  
Month to date heating degree days 344  
Since 1 July heating degree days 1138  
Cooling Degree Days 0 0  
Month to date cooling degree days 0  
Year to date cooling degree days 106  
Moisture
Dew Point 43°F   
Average Humidity 89    
Maximum Humidity 94    
Minimum Humidity 81    
Precipitation
Precipitation 0.44 in 0.31 in 1.61 in (1959)
Month to date precipitation 4.68  
Year to date precipitation 38.59  
Wind
Wind Speed 6 mph   
Max Wind Speed 16 mph   
Max Gust Speed 24 mph   
Visibility 8 miles   
Events Rain   

Key: T is trace of precipitation, MM is missing value
Source: NWS Daily Summary
Time(PST)TemperatureDew PointHumidity Pressure Visibility Wind DirectionWind SpeedGust SpeedPrecipitationEvents Conditions
12:15 AM 48.2°F 46.4°F 93% 29.71 in 9.0 miles Calm Calm - N/A Rain Light Rain
12:35 AM 48.2°F 46.4°F 93% 29.70 in 5.0 miles Calm Calm - 0.01 in   Overcast
12:55 AM 48.2°F 46.4°F 93% 29.68 in 9.0 miles SSE 4.6 mph - 0.01 in   Mostly Cloudy
1:15 AM 48.2°F 46.4°F 93% 29.67 in 10.0 miles SW 3.5 mph - N/A   Mostly Cloudy
1:35 AM 48.2°F 46.4°F 93% 29.67 in 10.0 miles South 5.8 mph - N/A   Overcast
1:55 AM 48.2°F 46.4°F 93% 29.65 in 8.0 miles SSE 6.9 mph - N/A   Overcast
2:15 AM 48.2°F 44.6°F 87% 29.65 in 10.0 miles South 4.6 mph - N/A Rain Rain
2:35 AM 48.2°F 46.4°F 93% 29.65 in 8.0 miles South 3.5 mph - N/A   Overcast
2:55 AM 48.2°F 44.6°F 87% 29.63 in 10.0 miles SSE 6.9 mph - N/A   Overcast
3:15 AM 48.2°F 44.6°F 87% 29.63 in 10.0 miles SSW 4.6 mph - N/A   Overcast
3:55 AM 48.2°F 44.6°F 87% 29.61 in 9.0 miles SE 5.8 mph - N/A   Overcast
4:15 AM 48.2°F 44.6°F 87% 29.60 in 10.0 miles SSE 8.1 mph - N/A   Overcast
4:35 AM 48.2°F 44.6°F 87% 29.60 in 10.0 miles South 4.6 mph - N/A   Overcast
4:55 AM 48.2°F 44.6°F 87% 29.60 in 10.0 miles SSE 8.1 mph - N/A   Overcast
5:15 AM 48.2°F 44.6°F 87% 29.61 in 10.0 miles SSE 6.9 mph - N/A   Overcast
5:35 AM 48.2°F 44.6°F 87% 29.60 in 10.0 miles South 6.9 mph - N/A   Overcast
5:55 AM 48.2°F 44.6°F 87% 29.59 in 10.0 miles SSE 5.8 mph - N/A   Overcast
6:15 AM 48.2°F 44.6°F 87% 29.58 in 10.0 miles South 4.6 mph - N/A   Overcast
6:35 AM 48.2°F 44.6°F 87% 29.57 in 7.0 miles South 4.6 mph - N/A   Overcast
6:55 AM 48.2°F 44.6°F 87% 29.57 in 10.0 miles South 5.8 mph - N/A   Mostly Cloudy
7:15 AM 48.2°F 44.6°F 87% 29.57 in 10.0 miles South 5.8 mph - N/A   Mostly Cloudy
7:35 AM 48.2°F 44.6°F 87% 29.56 in 10.0 miles South 4.6 mph - N/A   Overcast
8:15 AM 48.2°F 44.6°F 87% 29.55 in 6.0 miles South 8.1 mph - N/A   Mostly Cloudy
8:35 AM 48.2°F 46.4°F 93% 29.55 in 10.0 miles SSW 8.1 mph - N/A   Overcast
9:55 AM 50.0°F 46.4°F 87% 29.53 in 10.0 miles SSW 4.6 mph - N/A   Overcast
10:15 AM 50.0°F 46.4°F 87% 29.54 in 10.0 miles SW 9.2 mph - N/A   Overcast
10:35 AM 50.0°F 48.2°F 94% 29.56 in 3.0 miles West 9.2 mph 19.6 mph 0.01 in Rain Light Rain
10:55 AM 48.2°F 44.6°F 87% 29.57 in 2.5 miles West 8.1 mph 18.4 mph 0.02 in Rain Light Rain
11:15 AM 46.4°F 44.6°F 93% 29.57 in 2.5 miles West 4.6 mph - N/A   Overcast
11:55 AM 46.4°F 44.6°F 93% 29.57 in 9.0 miles WSW 9.2 mph - N/A Rain Light Rain
12:15 PM 46.4°F 44.6°F 93% 29.58 in 8.0 miles WSW 5.8 mph - 0.01 in   Mostly Cloudy
12:55 PM 46.4°F 41.0°F 81% 29.60 in 7.0 miles SW 5.8 mph - 0.02 in Rain Light Rain
1:15 PM 46.4°F 41.0°F 81% 29.60 in 5.0 miles South 4.6 mph - 0.01 in Rain Light Rain
1:35 PM 46.4°F 42.8°F 87% 29.61 in 5.0 miles South 3.5 mph - 0.02 in Rain Light Rain
2:15 PM 46.4°F 42.8°F 87% 29.60 in 5.0 miles SSE 8.1 mph - 0.01 in Rain Light Rain
2:35 PM 46.4°F 42.8°F 87% 29.61 in 7.0 miles SE 8.1 mph - 0.02 in Rain Light Rain
2:55 PM 44.6°F 42.8°F 93% 29.63 in 4.0 miles South 8.1 mph - 0.02 in Rain Light Rain
3:15 PM 44.6°F 42.8°F 93% 29.64 in 7.0 miles SSW 3.5 mph - 0.01 in Rain Light Rain
3:35 PM 44.6°F 42.8°F 93% 29.64 in 10.0 miles South 9.2 mph - 0.01 in   Overcast
3:55 PM 46.4°F 42.8°F 87% 29.65 in 10.0 miles South 9.2 mph - 0.01 in   Overcast
4:15 PM 46.4°F 42.8°F 87% 29.66 in 9.0 miles South 9.2 mph - N/A   Overcast
4:35 PM 44.6°F 42.8°F 93% 29.66 in 10.0 miles South 10.4 mph - N/A   Overcast
4:55 PM 44.6°F 41.0°F 87% 29.67 in 10.0 miles SSW 8.1 mph - N/A   Overcast
5:15 PM 44.6°F 42.8°F 93% 29.67 in 5.0 miles South 10.4 mph - N/A Rain Light Rain
5:35 PM 44.6°F 42.8°F 93% 29.66 in 10.0 miles South 13.8 mph 18.4 mph N/A   Overcast
5:55 PM 44.6°F 41.0°F 87% 29.66 in 10.0 miles SSE 12.7 mph 17.3 mph N/A   Mostly Cloudy
6:15 PM 44.6°F 41.0°F 87% 29.67 in 10.0 miles South 10.4 mph 21.9 mph N/A   Overcast
6:35 PM 44.6°F 41.0°F 87% 29.67 in 10.0 miles South 16.1 mph 21.9 mph N/A   Overcast
6:55 PM 44.6°F 41.0°F 87% 29.67 in 10.0 miles South 15.0 mph 24.2 mph N/A   Mostly Cloudy
7:15 PM 44.6°F 41.0°F 87% 29.68 in 10.0 miles South 10.4 mph 19.6 mph N/A   Mostly Cloudy
7:35 PM 44.6°F 41.0°F 87% 29.68 in 10.0 miles South 11.5 mph 17.3 mph N/A   Overcast
7:55 PM 44.6°F 41.0°F 87% 29.68 in 10.0 miles South 11.5 mph 16.1 mph N/A   Overcast
8:15 PM 44.6°F 41.0°F 87% 29.70 in 5.0 miles South 10.4 mph 17.3 mph 0.04 in Rain Light Rain
8:35 PM 44.6°F 41.0°F 87% 29.71 in 5.0 miles SW 11.5 mph 16.1 mph 0.07 in Rain Light Rain
8:55 PM 44.6°F 41.0°F 87% 29.72 in 4.0 miles South 6.9 mph - 0.15 in Rain Rain
9:35 PM 44.6°F 41.0°F 87% 29.71 in 10.0 miles South 11.5 mph - 0.10 in   Mostly Cloudy
9:55 PM 44.6°F 41.0°F 87% 29.71 in 7.0 miles SSE 15.0 mph 20.7 mph 0.13 in Rain Light Rain
10:15 PM 44.6°F 41.0°F 87% 29.73 in 4.0 miles SSE 10.4 mph 24.2 mph 0.04 in   Overcast
10:35 PM 44.6°F 41.0°F 87% 29.73 in 10.0 miles South 9.2 mph 16.1 mph 0.04 in   Overcast
10:55 PM 44.6°F 41.0°F 87% 29.74 in 10.0 miles South 8.1 mph - 0.05 in   Mostly Cloudy
11:15 PM 44.6°F 41.0°F 87% 29.74 in 10.0 miles South 8.1 mph - N/A   Overcast
11:35 PM 44.6°F 41.0°F 87% 29.75 in 9.0 miles South 9.2 mph - 0.01 in   Overcast
11:55 PM 44.6°F 41.0°F 87% 29.75 in 10.0 miles South 9.2 mph 16.1 mph 0.01 in   Mostly Cloudy
Moon Phase
Nov. 17 Nov. 20 Nov. 28 Dec. 06 Dec. 13
Sunrise:07:18 AM (PST) Moon Rise:11:06 AM (PST)
Sunset:04:35 PM (PST) Moon Set:08:53 PM (PST)

Copyright © 2014 The Weather Underground, Inc.